Location: Dehesa de la Cepeda
(40.6574°N, 4.3013°W)
Time: 20:36:04
(UTC+00:00)

Vanguard 2 Rocket - Pass Details

Date: 13 August 2021
Orbit: 556 x 3324 km, 32.9° (Epoch: 19 September)

Event Time Altitude Azimuth Distance (km) Brightness Sun altitude
Rises 07:08:51 0° 266° (W) 3,831 9.5 18.2°
Reaches altitude 10° 07:12:21 10° 255° (WSW) 2,501 8.6 18.9°
Maximum altitude 07:16:56 27° 198° (SSW) 1,289 7.7 19.7°
Drops below altitude 10° 07:20:28 10° 139° (SE) 1,893 9.2 20.4°
Sets 07:22:45 0° 126° (SE) 2,725 10.2 20.8°
